Location: Boiro
(42.6475°N, 8.8834°W)
Time: 18:29:41
(UTC+02:00)

Altair - Visible Passes

Search period start: 27 May 2022 00:00
Search period end: 06 June 2022 00:00
Orbit: 1501 x 1683 km, 47.2° (Epoch: 26 May)

Date Brightness Start Highest point End Pass type
(mag) Time Alt. Az. Time Alt. Az. Time Alt. Az.
27 May 7.7 01:03:26 10° WNW 01:13:19 58° SW 01:17:23 37° SSE visible
27 May 8.9 03:10:28 10° W 03:15:22 18° WSW 03:15:22 18° WSW visible
27 May 7.9 22:33:00 10° WNW 22:43:13 75° NNE 22:53:22 10° E visible
28 May 7.7 00:38:10 10° WNW 00:48:09 62° SW 00:53:09 33° SSE visible
28 May 8.8 02:44:49 10° W 02:51:08 20° WSW 02:51:08 20° WSW visible
29 May 7.7 00:12:55 10° WNW 00:22:58 66° SW 00:28:58 28° SE visible
29 May 8.7 02:19:15 10° W 02:26:24 22° SW 02:26:58 22° SW visible
29 May 7.7 23:47:40 10° WNW 23:57:46 70° SSW 00:04:50 22° SE visible
30 May 8.6 01:53:45 10° WNW 02:01:20 25° SW 02:02:50 24° SW visible
30 May 7.7 23:22:25 10° WNW 23:32:34 74° SSW 23:40:45 17° SE visible
31 May 8.5 01:28:17 10° WNW 01:36:16 27° SW 01:38:45 25° SSW visible
31 May 7.7 22:57:11 10° WNW 23:07:21 78° SSW 23:16:43 13° SE visible
01 Jun 8.5 01:02:52 10° WNW 01:11:11 30° SW 01:14:43 24° SSW visible
01 Jun 7.8 22:31:57 10° WNW 22:42:08 81° SSW 22:52:16 10° ESE visible
02 Jun 8.5 00:37:29 10° WNW 00:46:05 33° SW 00:50:43 23° S visible
03 Jun 8.4 00:12:08 10° WNW 00:20:58 36° SW 00:26:47 20° S visible
03 Jun 8.4 23:46:48 10° WNW 23:55:52 39° SW 00:02:52 17° SSE visible
04 Jun 8.4 23:21:29 10° WNW 23:30:43 42° SW 23:39:01 13° SSE visible
05 Jun 8.3 22:56:12 10° WNW 23:05:35 45° SW 23:14:58 10° SSE visible
